LPA313 UGTB-VIDP

Flight info

Callsign LPA313
Flight time 3h 54m
Altitude 39000
Route DISKA M737 VERCA M747 BODKA B375 GIRUN G792 MSD B411 TANBU/N0485F410 B411 PAMTU P628 ASLUM/N0483F390 P628 RK G202 MERUN G452 LKA LKA7A
Aircraft B772/H-SDE2E3FGHIJ5LORVWXY/LB1D1

Departure

Time 2026-04-26 17:49
Airport Tbilisi International Airport (UGTB)

Arrival

Time 2026-04-26 21:44
Airport Indira Gandhi International Airport (VIDP)
Time Latitude Longitude Altitude Speed Heading
2026-04-26 17:24 41.66740 44.96258 1569 ft 0 kts 223°
2026-04-26 17:31 41.66739 44.96257 1569 ft 0 kts 223°
2026-04-26 17:32 41.66782 44.96330 1574 ft 0 kts 314°
2026-04-26 17:33 41.66783 44.96329 1574 ft 1 kts 314°
2026-04-26 17:33 41.66822 44.96275 1574 ft 10 kts 313°
2026-04-26 17:34 41.66967 44.96070 1577 ft 16 kts 314°
2026-04-26 17:34 41.67044 44.95956 1578 ft 16 kts 303°
2026-04-26 17:34 41.67119 44.95830 1578 ft 17 kts 310°
2026-04-26 17:34 41.67202 44.95710 1580 ft 17 kts 315°
2026-04-26 17:35 41.67287 44.95595 1582 ft 17 kts 314°
2026-04-26 17:35 41.67371 44.95471 1584 ft 17 kts 312°
2026-04-26 17:35 41.67447 44.95354 1589 ft 15 kts 310°
2026-04-26 17:35 41.67518 44.95249 1593 ft 14 kts 313°
2026-04-26 17:36 41.67584 44.95155 1597 ft 13 kts 313°
2026-04-26 17:36 41.67646 44.95066 1600 ft 12 kts 308°
2026-04-26 17:36 41.67655 44.94945 1598 ft 15 kts 256°
2026-04-26 17:36 41.67622 44.94794 1593 ft 17 kts 253°
2026-04-26 17:37 41.67603 44.94712 1590 ft 0 kts 252°
2026-04-26 17:38 41.67603 44.94709 1589 ft 3 kts 252°
2026-04-26 17:38 41.67588 44.94643 1587 ft 3 kts 254°
2026-04-26 17:39 41.67587 44.94643 1587 ft 0 kts 254°
2026-04-26 17:41 41.67586 44.94637 1587 ft 2 kts 253°
2026-04-26 17:42 41.67579 44.94606 1587 ft 4 kts 253°
2026-04-26 17:42 41.67571 44.94572 1586 ft 0 kts 252°
2026-04-26 17:43 41.67569 44.94564 1586 ft 2 kts 252°
2026-04-26 17:43 41.67558 44.94521 1585 ft 4 kts 249°
2026-04-26 17:43 41.67557 44.94519 1585 ft 0 kts 249°
2026-04-26 17:47 41.67532 44.94420 1582 ft 10 kts 255°
2026-04-26 17:47 41.67498 44.94390 1580 ft 9 kts 166°
2026-04-26 17:48 41.67470 44.94411 1579 ft 0 kts 139°
2026-04-26 17:48 41.67461 44.94423 1579 ft 13 kts 139°
2026-04-26 17:49 41.67136 44.94825 1560 ft 113 kts 136°
2026-04-26 17:49 41.66360 44.95806 1626 ft 185 kts 135°
2026-04-26 17:49 41.65427 44.96990 2623 ft 189 kts 136°
2026-04-26 17:49 41.64533 44.98111 3649 ft 178 kts 136°
2026-04-26 17:50 41.63583 44.99303 4065 ft 195 kts 135°
2026-04-26 17:50 41.62560 45.00591 4504 ft 212 kts 135°
2026-04-26 17:50 41.61442 45.01998 5038 ft 228 kts 135°
2026-04-26 17:50 41.60246 45.03502 5563 ft 244 kts 136°
2026-04-26 17:51 41.58991 45.05079 6113 ft 259 kts 136°
2026-04-26 17:51 41.57641 45.06776 6765 ft 271 kts 136°
2026-04-26 17:51 41.56299 45.08518 7589 ft 274 kts 130°
2026-04-26 17:51 41.55183 45.10614 8364 ft 281 kts 123°
2026-04-26 17:52 41.54148 45.12824 9114 ft 287 kts 123°
2026-04-26 17:52 41.53085 45.15104 9888 ft 292 kts 123°
2026-04-26 17:52 41.51999 45.17412 10490 ft 303 kts 123°
2026-04-26 17:52 41.50848 45.19850 10909 ft 321 kts 123°
2026-04-26 17:53 41.49624 45.22440 11325 ft 338 kts 123°
2026-04-26 17:53 41.48347 45.25136 11739 ft 355 kts 123°
2026-04-26 17:53 41.47004 45.27967 12167 ft 370 kts 124°
2026-04-26 17:54 41.43551 45.33366 13122 ft 394 kts 134°
2026-04-26 17:54 41.41684 45.36034 13858 ft 400 kts 134°
2026-04-26 17:54 41.39774 45.38764 14727 ft 401 kts 135°
2026-04-26 17:54 41.37891 45.41452 15565 ft 403 kts 135°
2026-04-26 17:55 41.35985 45.44172 16299 ft 407 kts 135°
2026-04-26 17:55 41.34039 45.46947 17012 ft 411 kts 135°
2026-04-26 17:55 41.32104 45.49705 17754 ft 414 kts 135°
2026-04-26 17:55 41.30114 45.52538 18540 ft 417 kts 135°
2026-04-26 17:56 41.28131 45.55359 19213 ft 421 kts 135°
2026-04-26 17:56 41.24097 45.61090 20485 ft 431 kts 135°
2026-04-26 17:57 41.20619 45.67675 21763 ft 446 kts 118°
2026-04-26 17:57 41.19473 45.71513 22322 ft 453 kts 112°
2026-04-26 17:57 41.18433 45.75485 22917 ft 458 kts 112°
2026-04-26 17:57 41.17387 45.79495 23523 ft 461 kts 112°
2026-04-26 17:58 41.14191 45.91649 25160 ft 475 kts 112°
2026-04-26 17:59 41.11982 45.99989 26195 ft 485 kts 112°
2026-04-26 17:59 41.10861 46.04207 26732 ft 488 kts 112°
2026-04-26 17:59 41.09725 46.08471 27232 ft 493 kts 112°
2026-04-26 17:59 41.08567 46.12806 27761 ft 496 kts 112°
2026-04-26 18:00 41.07416 46.17111 28256 ft 500 kts 112°
2026-04-26 18:00 41.06237 46.21508 28702 ft 505 kts 112°
2026-04-26 18:00 41.05059 46.25897 29186 ft 509 kts 112°
2026-04-26 18:00 41.03872 46.30312 29705 ft 512 kts 112°
2026-04-26 18:01 41.02683 46.34764 30147 ft 516 kts 112°
2026-04-26 18:01 41.01497 46.39210 30553 ft 519 kts 112°
2026-04-26 18:01 41.00297 46.43704 31136 ft 519 kts 112°
2026-04-26 18:01 40.99101 46.48174 31787 ft 516 kts 112°
2026-04-26 18:02 40.97897 46.52663 32427 ft 514 kts 112°
2026-04-26 18:02 40.97110 46.55591 32861 ft 512 kts 112°
2026-04-26 18:02 40.95528 46.61469 33610 ft 510 kts 112°
2026-04-26 18:02 40.94328 46.65916 34130 ft 510 kts 113°
2026-04-26 18:03 40.93145 46.70292 34613 ft 509 kts 113°
2026-04-26 18:03 40.91956 46.74683 35047 ft 508 kts 113°
2026-04-26 18:03 40.90760 46.79093 35506 ft 507 kts 114°
2026-04-26 18:03 40.89576 46.83451 36009 ft 504 kts 114°
2026-04-26 18:04 40.88394 46.87775 36588 ft 500 kts 114°
2026-04-26 18:04 40.87215 46.92080 37152 ft 498 kts 114°
2026-04-26 18:04 40.86043 46.96352 37579 ft 497 kts 114°
2026-04-26 18:05 40.83681 47.04935 38324 ft 497 kts 114°
2026-04-26 18:05 40.82496 47.09233 38709 ft 496 kts 114°
2026-04-26 18:05 40.81316 47.13504 39028 ft 496 kts 114°
2026-04-26 18:06 40.78942 47.22038 39063 ft 497 kts 114°
2026-04-26 18:06 40.76562 47.30545 39075 ft 496 kts 114°
2026-04-26 18:07 40.74169 47.39067 39075 ft 497 kts 114°
2026-04-26 18:07 40.71771 47.47610 39069 ft 497 kts 114°
2026-04-26 18:08 40.69381 47.56101 39067 ft 497 kts 114°
2026-04-26 18:08 40.66978 47.64614 39056 ft 497 kts 114°
2026-04-26 18:09 40.64574 47.73102 39062 ft 496 kts 115°
2026-04-26 18:09 40.62153 47.81619 39058 ft 496 kts 115°
2026-04-26 18:10 40.59739 47.90081 39063 ft 497 kts 115°
2026-04-26 18:10 40.57363 47.98630 39062 ft 500 kts 112°
2026-04-26 18:11 40.55259 48.07318 39068 ft 500 kts 111°
2026-04-26 18:11 40.53144 48.16002 39049 ft 499 kts 111°
2026-04-26 18:12 40.51027 48.24650 39051 ft 500 kts 111°
2026-04-26 18:12 40.48894 48.33311 39047 ft 498 kts 111°
2026-04-26 18:13 40.46759 48.41933 39050 ft 499 kts 111°
2026-04-26 18:13 40.44602 48.50604 39041 ft 499 kts 111°
2026-04-26 18:14 40.42452 48.59212 39040 ft 499 kts 111°
2026-04-26 18:14 40.40281 48.67874 39029 ft 500 kts 112°
2026-04-26 18:15 40.38111 48.76495 39031 ft 500 kts 112°
2026-04-26 18:15 40.35976 48.84947 39030 ft 500 kts 112°
2026-04-26 18:16 40.33791 48.93567 39036 ft 501 kts 111°
2026-04-26 18:16 40.30494 49.06514 39028 ft 501 kts 112°
2026-04-26 18:17 40.28268 49.15122 39035 ft 501 kts 112°
2026-04-26 18:17 40.26035 49.23727 39020 ft 500 kts 112°
2026-04-26 18:18 40.23809 49.32335 39032 ft 501 kts 112°
2026-04-26 18:18 40.21569 49.40976 39043 ft 500 kts 112°
2026-04-26 18:19 40.19329 49.49583 39037 ft 500 kts 112°
2026-04-26 18:19 40.17087 49.58170 39046 ft 502 kts 112°
2026-04-26 18:20 40.14832 49.66781 39043 ft 501 kts 112°
2026-04-26 18:20 40.12958 49.73917 39046 ft 500 kts 112°
2026-04-26 18:21 40.10318 49.83930 39044 ft 501 kts 112°
2026-04-26 18:21 40.08057 49.92472 39044 ft 499 kts 112°
2026-04-26 18:22 40.05787 50.01020 39047 ft 499 kts 112°
2026-04-26 18:22 40.03504 50.09591 39051 ft 498 kts 112°
2026-04-26 18:23 40.01234 50.18079 39057 ft 499 kts 112°
2026-04-26 18:23 39.98956 50.26571 39053 ft 497 kts 112°
2026-04-26 18:24 39.96662 50.35092 39039 ft 499 kts 112°
2026-04-26 18:24 39.94367 50.43588 39036 ft 500 kts 112°
2026-04-26 18:25 39.92053 50.52124 39041 ft 500 kts 112°
2026-04-26 18:25 39.89749 50.60598 39038 ft 499 kts 112°
2026-04-26 18:26 39.87422 50.69124 39032 ft 500 kts 113°
2026-04-26 18:26 39.85106 50.77588 39048 ft 498 kts 113°
2026-04-26 18:27 39.82767 50.86101 39044 ft 499 kts 113°
2026-04-26 18:27 39.80436 50.94559 39032 ft 501 kts 113°
2026-04-26 18:28 39.78097 51.03019 39033 ft 498 kts 113°
2026-04-26 18:28 39.75753 51.11469 39024 ft 499 kts 113°
2026-04-26 18:29 39.73378 51.19999 39037 ft 505 kts 113°
2026-04-26 18:29 39.70980 51.28583 39036 ft 511 kts 113°
2026-04-26 18:30 39.68554 51.37240 39030 ft 517 kts 113°
2026-04-26 18:30 39.66088 51.46011 39036 ft 520 kts 113°
2026-04-26 18:31 39.63543 51.54755 39042 ft 521 kts 115°
2026-04-26 18:31 39.60824 51.63469 39047 ft 522 kts 115°
2026-04-26 18:32 39.58098 51.72197 39036 ft 522 kts 115°
2026-04-26 18:32 39.55384 51.80874 39034 ft 522 kts 115°
2026-04-26 18:33 39.52669 51.89543 39046 ft 522 kts 115°
2026-04-26 18:33 39.49934 51.98253 39052 ft 522 kts 115°
2026-04-26 18:34 39.47202 52.06926 39053 ft 522 kts 115°
2026-04-26 18:34 39.44480 52.15546 39051 ft 522 kts 115°
2026-04-26 18:35 39.41721 52.24256 39049 ft 522 kts 115°
2026-04-26 18:35 39.38972 52.32908 39050 ft 522 kts 115°
2026-04-26 18:36 39.36219 52.41543 39050 ft 523 kts 115°
2026-04-26 18:36 39.33458 52.50182 39051 ft 522 kts 115°
2026-04-26 18:37 39.30689 52.58815 39049 ft 523 kts 115°
2026-04-26 18:37 39.27947 52.67479 39039 ft 523 kts 114°
2026-04-26 18:38 39.25334 52.76224 39044 ft 523 kts 114°
2026-04-26 18:38 39.22716 52.84947 39031 ft 523 kts 114°
2026-04-26 18:39 39.20096 52.93633 39037 ft 523 kts 114°
2026-04-26 18:39 39.17466 53.02314 39038 ft 523 kts 114°
2026-04-26 18:40 39.14819 53.11018 39039 ft 523 kts 114°
2026-04-26 18:40 39.12164 53.19717 39032 ft 524 kts 114°
2026-04-26 18:41 39.09503 53.28408 39027 ft 523 kts 114°
2026-04-26 18:41 39.06836 53.37088 39027 ft 524 kts 114°
2026-04-26 18:42 39.04153 53.45794 39034 ft 523 kts 114°
2026-04-26 18:42 39.01477 53.54445 39026 ft 523 kts 114°
2026-04-26 18:43 38.98793 53.63100 39021 ft 523 kts 114°
2026-04-26 18:43 38.96108 53.71754 39013 ft 522 kts 115°
2026-04-26 18:44 38.93424 53.80396 39021 ft 523 kts 115°
2026-04-26 18:44 38.90726 53.89053 39015 ft 523 kts 115°
2026-04-26 18:45 38.88025 53.97694 39006 ft 523 kts 115°
2026-04-26 18:45 38.85327 54.06297 39023 ft 523 kts 115°
2026-04-26 18:46 38.82607 54.14944 38987 ft 524 kts 115°
2026-04-26 18:46 38.79874 54.23603 38998 ft 524 kts 115°
2026-04-26 18:47 38.77144 54.32228 39001 ft 524 kts 115°
2026-04-26 18:47 38.74416 54.40821 38996 ft 524 kts 115°
2026-04-26 18:48 38.71655 54.49490 38996 ft 524 kts 115°
2026-04-26 18:48 38.68899 54.58114 38997 ft 525 kts 115°
2026-04-26 18:49 38.66148 54.66699 38982 ft 523 kts 115°
2026-04-26 18:49 38.63381 54.75309 38992 ft 523 kts 115°
2026-04-26 18:50 38.60623 54.83863 38971 ft 523 kts 115°
2026-04-26 18:50 38.57852 54.92430 39010 ft 524 kts 115°
2026-04-26 18:51 38.55074 55.00994 38976 ft 523 kts 115°
2026-04-26 18:51 38.52295 55.09537 39003 ft 525 kts 116°
2026-04-26 18:52 38.49963 55.16685 39006 ft 525 kts 115°
2026-04-26 18:52 38.46680 55.26717 39006 ft 526 kts 116°
2026-04-26 18:53 38.43851 55.35334 38989 ft 526 kts 116°
2026-04-26 18:53 38.41045 55.43855 39002 ft 526 kts 116°
2026-04-26 18:54 38.38200 55.52466 39001 ft 527 kts 116°
2026-04-26 18:54 38.35319 55.60986 39024 ft 527 kts 116°
2026-04-26 18:55 38.32418 55.69517 39002 ft 527 kts 117°
2026-04-26 18:55 38.29510 55.78048 38999 ft 527 kts 117°
2026-04-26 18:56 38.26598 55.86569 39016 ft 527 kts 117°
2026-04-26 18:56 38.23660 55.95144 39026 ft 527 kts 117°
2026-04-26 18:57 38.21230 56.02217 39035 ft 527 kts 117°
2026-04-26 18:57 38.17791 56.12199 39035 ft 528 kts 117°
2026-04-26 18:58 38.14852 56.20704 39048 ft 529 kts 117°
2026-04-26 18:58 38.11898 56.29227 39048 ft 530 kts 117°
2026-04-26 18:59 38.08175 56.37218 39087 ft 523 kts 130°
2026-04-26 18:59 38.03767 56.44508 39075 ft 524 kts 131°
2026-04-26 19:00 37.99307 56.51820 39069 ft 526 kts 131°
2026-04-26 19:00 37.94840 56.59125 39084 ft 526 kts 131°
2026-04-26 19:01 37.90337 56.66470 39085 ft 527 kts 132°
2026-04-26 19:01 37.85861 56.73755 39095 ft 527 kts 132°
2026-04-26 19:02 37.81379 56.81033 39093 ft 528 kts 132°
2026-04-26 19:02 37.77594 56.87166 39114 ft 529 kts 132°
2026-04-26 19:03 37.72329 56.95678 39111 ft 530 kts 132°
2026-04-26 19:03 37.67791 57.02999 39128 ft 531 kts 132°
2026-04-26 19:04 37.63242 57.10319 39132 ft 531 kts 132°
2026-04-26 19:04 37.58686 57.17634 39147 ft 531 kts 132°
2026-04-26 19:05 37.51848 57.28585 39145 ft 531 kts 133°
2026-04-26 19:06 37.47374 57.36001 39159 ft 535 kts 128°
2026-04-26 19:06 37.43320 57.43830 39163 ft 536 kts 127°
2026-04-26 19:07 37.39263 57.51623 39173 ft 536 kts 127°
2026-04-26 19:07 37.35173 57.59415 39198 ft 536 kts 127°
2026-04-26 19:08 37.31046 57.67233 39230 ft 536 kts 128°
2026-04-26 19:08 37.26936 57.74986 39234 ft 536 kts 128°
2026-04-26 19:09 37.22796 57.82767 39236 ft 536 kts 128°
2026-04-26 19:09 37.18669 57.90503 39239 ft 537 kts 128°
2026-04-26 19:10 37.14511 57.98275 39235 ft 537 kts 128°
2026-04-26 19:10 37.10363 58.06030 39244 ft 537 kts 128°
2026-04-26 19:11 37.06210 58.13791 39250 ft 537 kts 128°
2026-04-26 19:11 37.02071 58.21508 39248 ft 538 kts 128°
2026-04-26 19:12 36.97884 58.29296 39245 ft 538 kts 128°
2026-04-26 19:12 36.93728 58.37008 39250 ft 538 kts 128°
2026-04-26 19:13 36.89541 58.44759 39257 ft 537 kts 128°
2026-04-26 19:13 36.85368 58.52467 39256 ft 537 kts 128°
2026-04-26 19:14 36.81173 58.60195 39267 ft 538 kts 128°
2026-04-26 19:14 36.76984 58.67886 39259 ft 536 kts 129°
2026-04-26 19:15 36.72798 58.75535 39241 ft 537 kts 129°
2026-04-26 19:15 36.68606 58.83179 39238 ft 538 kts 129°
2026-04-26 19:16 36.64370 58.90886 39241 ft 538 kts 129°
2026-04-26 19:16 36.60149 58.98550 39235 ft 538 kts 129°
2026-04-26 19:17 36.55950 59.06156 39229 ft 538 kts 129°
2026-04-26 19:17 36.51719 59.13804 39224 ft 538 kts 129°
2026-04-26 19:18 36.47461 59.21481 39225 ft 539 kts 129°
2026-04-26 19:18 36.43230 59.29095 39220 ft 538 kts 129°
2026-04-26 19:19 36.38958 59.36765 39215 ft 539 kts 129°
2026-04-26 19:19 36.34707 59.44379 39216 ft 540 kts 129°
2026-04-26 19:20 36.30434 59.52017 39209 ft 539 kts 129°
2026-04-26 19:20 36.26165 59.59629 39199 ft 540 kts 129°
2026-04-26 19:21 36.21713 59.67047 39197 ft 535 kts 136°
2026-04-26 19:21 36.16831 59.74006 39172 ft 534 kts 136°
2026-04-26 19:22 36.11962 59.80904 39180 ft 535 kts 137°
2026-04-26 19:22 36.07065 59.87833 39171 ft 535 kts 137°
2026-04-26 19:23 36.02177 59.94735 39157 ft 536 kts 137°
2026-04-26 19:23 35.97295 60.01614 39153 ft 536 kts 137°
2026-04-26 19:24 35.92400 60.08500 39163 ft 536 kts 137°
2026-04-26 19:24 35.85018 60.18859 39175 ft 536 kts 137°
2026-04-26 19:25 35.80921 60.24593 39192 ft 535 kts 137°
2026-04-26 19:25 35.75210 60.32571 39188 ft 536 kts 137°
2026-04-26 19:26 35.70256 60.39476 39179 ft 536 kts 137°
2026-04-26 19:26 35.65322 60.46339 39170 ft 537 kts 137°
2026-04-26 19:27 35.60390 60.53186 39173 ft 537 kts 137°
2026-04-26 19:27 35.55443 60.60050 39175 ft 537 kts 136°
2026-04-26 19:28 35.50541 60.66885 39167 ft 536 kts 137°
2026-04-26 19:28 35.45633 60.73719 39164 ft 523 kts 137°
2026-04-26 19:29 35.40913 60.80278 39153 ft 512 kts 137°
2026-04-26 19:29 35.36185 60.86822 39139 ft 516 kts 137°
2026-04-26 19:30 35.31448 60.93373 39118 ft 514 kts 137°
2026-04-26 19:30 35.27481 60.98846 39112 ft 516 kts 137°
2026-04-26 19:31 35.21945 61.06473 39100 ft 516 kts 138°
2026-04-26 19:31 35.17165 61.13019 39098 ft 516 kts 140°
2026-04-26 19:32 35.12053 61.19031 39108 ft 511 kts 143°
2026-04-26 19:32 35.06838 61.25017 39103 ft 512 kts 143°
2026-04-26 19:33 35.01673 61.30940 39100 ft 511 kts 143°
2026-04-26 19:33 34.96492 61.36872 39108 ft 513 kts 143°
2026-04-26 19:34 34.91300 61.42810 39106 ft 510 kts 143°
2026-04-26 19:34 34.86151 61.48687 39121 ft 511 kts 143°
2026-04-26 19:35 34.80956 61.54605 39109 ft 513 kts 142°
2026-04-26 19:35 34.75788 61.60486 39113 ft 509 kts 142°
2026-04-26 19:36 34.71465 61.65393 39120 ft 513 kts 143°
2026-04-26 19:36 34.65409 61.72259 39110 ft 510 kts 143°
2026-04-26 19:37 34.60210 61.78141 39111 ft 511 kts 143°
2026-04-26 19:37 34.55046 61.83974 39107 ft 510 kts 143°
2026-04-26 19:38 34.49836 61.89847 39098 ft 510 kts 143°
2026-04-26 19:38 34.44656 61.95675 39099 ft 511 kts 143°
2026-04-26 19:39 34.39452 62.01522 39098 ft 511 kts 143°
2026-04-26 19:39 34.34232 62.07374 39090 ft 513 kts 143°
2026-04-26 19:40 34.28994 62.13238 39101 ft 512 kts 143°
2026-04-26 19:40 34.23773 62.19071 39108 ft 514 kts 143°
2026-04-26 19:41 34.18787 62.25306 39125 ft 519 kts 135°
2026-04-26 19:41 34.14955 62.30843 39167 ft 520 kts 135°
2026-04-26 19:42 34.09519 62.38692 39197 ft 521 kts 135°
2026-04-26 19:42 34.04868 62.45384 39236 ft 521 kts 135°
2026-04-26 19:43 34.00229 62.52045 39262 ft 521 kts 135°
2026-04-26 19:43 33.95553 62.58740 39290 ft 523 kts 135°
2026-04-26 19:44 33.90886 62.65410 39307 ft 523 kts 135°
2026-04-26 19:44 33.86219 62.72066 39307 ft 520 kts 135°
2026-04-26 19:45 33.81543 62.78723 39302 ft 520 kts 135°
2026-04-26 19:45 33.76861 62.85374 39307 ft 523 kts 135°
2026-04-26 19:46 33.72192 62.91998 39319 ft 519 kts 135°
2026-04-26 19:46 33.67536 62.98588 39337 ft 519 kts 135°
2026-04-26 19:47 33.63644 63.04087 39336 ft 520 kts 135°
2026-04-26 19:47 33.58171 63.11807 39310 ft 523 kts 135°
2026-04-26 19:48 33.53468 63.18430 39303 ft 518 kts 135°
2026-04-26 19:48 33.48812 63.24970 39316 ft 522 kts 135°
2026-04-26 19:49 33.44106 63.31572 39306 ft 519 kts 135°
2026-04-26 19:49 33.39443 63.38100 39314 ft 519 kts 135°
2026-04-26 19:50 33.34733 63.44682 39321 ft 520 kts 135°
2026-04-26 19:50 33.30018 63.51260 39333 ft 520 kts 135°
2026-04-26 19:51 33.25326 63.57793 39327 ft 519 kts 135°
2026-04-26 19:51 33.20624 63.64329 39322 ft 520 kts 135°
2026-04-26 19:52 33.15899 63.70885 39329 ft 518 kts 135°
2026-04-26 19:52 33.11210 63.77378 39371 ft 522 kts 135°
2026-04-26 19:53 33.06466 63.83938 39363 ft 520 kts 135°
2026-04-26 19:53 33.01726 63.90478 39402 ft 522 kts 136°
2026-04-26 19:54 32.97015 63.96969 39410 ft 520 kts 135°
2026-04-26 19:54 32.92284 64.03474 39393 ft 521 kts 135°
2026-04-26 19:55 32.87529 64.10002 39387 ft 519 kts 135°
2026-04-26 19:55 32.82804 64.16476 39378 ft 519 kts 135°
2026-04-26 19:56 32.78085 64.22930 39366 ft 520 kts 135°
2026-04-26 19:56 32.73333 64.29418 39342 ft 521 kts 135°
2026-04-26 19:57 32.68589 64.35885 39292 ft 518 kts 135°
2026-04-26 19:57 32.63849 64.42333 39255 ft 520 kts 135°
2026-04-26 19:58 32.59058 64.48701 39224 ft 520 kts 137°
2026-04-26 19:58 32.54174 64.55031 39184 ft 519 kts 136°
2026-04-26 19:59 32.49317 64.61321 39155 ft 519 kts 136°
2026-04-26 19:59 32.44460 64.67608 39117 ft 518 kts 137°
2026-04-26 20:00 32.39609 64.73879 39112 ft 519 kts 137°
2026-04-26 20:00 32.34736 64.80171 39082 ft 516 kts 137°
2026-04-26 20:01 32.29865 64.86448 39073 ft 518 kts 137°
2026-04-26 20:01 32.25030 64.92671 39052 ft 517 kts 137°
2026-04-26 20:02 32.20164 64.98923 39052 ft 515 kts 137°
2026-04-26 20:02 32.16136 65.04090 39049 ft 516 kts 137°
2026-04-26 20:03 32.10446 65.11375 39071 ft 518 kts 136°
2026-04-26 20:03 32.05582 65.17593 39090 ft 518 kts 136°
2026-04-26 20:04 32.00693 65.23833 39106 ft 518 kts 137°
2026-04-26 20:04 31.95807 65.30057 39109 ft 518 kts 137°
2026-04-26 20:05 31.91071 65.36081 39102 ft 516 kts 137°
2026-04-26 20:05 31.86163 65.42313 39094 ft 518 kts 136°
2026-04-26 20:06 31.81287 65.48494 39094 ft 518 kts 136°
2026-04-26 20:06 31.76395 65.54684 39086 ft 517 kts 136°
2026-04-26 20:07 31.71487 65.60885 39074 ft 518 kts 136°
2026-04-26 20:07 31.66581 65.67074 39054 ft 517 kts 137°
2026-04-26 20:08 31.61670 65.73257 39040 ft 518 kts 137°
2026-04-26 20:08 31.56770 65.79418 39047 ft 517 kts 137°
2026-04-26 20:09 31.51855 65.85586 39042 ft 517 kts 137°
2026-04-26 20:09 31.47101 65.91888 39056 ft 520 kts 130°
2026-04-26 20:10 31.42756 65.98688 39058 ft 521 kts 130°
2026-04-26 20:10 31.38453 66.05439 39065 ft 520 kts 130°
2026-04-26 20:11 31.34130 66.12199 39086 ft 520 kts 130°
2026-04-26 20:12 31.27611 66.22360 39116 ft 519 kts 130°
2026-04-26 20:12 31.23272 66.29105 39137 ft 520 kts 130°
2026-04-26 20:13 31.18936 66.35834 39160 ft 520 kts 129°
2026-04-26 20:13 31.14605 66.42542 39156 ft 520 kts 129°
2026-04-26 20:14 31.10256 66.49267 39178 ft 520 kts 129°
2026-04-26 20:14 31.05901 66.55988 39226 ft 519 kts 130°
2026-04-26 20:15 31.01550 66.62691 39263 ft 518 kts 130°
2026-04-26 20:15 30.96928 66.69089 39301 ft 516 kts 134°
2026-04-26 20:16 30.92256 66.75417 39317 ft 516 kts 134°
2026-04-26 20:16 30.87612 66.81723 39308 ft 515 kts 134°
2026-04-26 20:17 30.83058 66.88187 39313 ft 516 kts 131°
2026-04-26 20:17 30.78631 66.94715 39307 ft 517 kts 131°
2026-04-26 20:18 30.74178 67.01273 39284 ft 516 kts 131°
2026-04-26 20:18 30.69728 67.07816 39288 ft 515 kts 131°
2026-04-26 20:19 30.65312 67.14301 39320 ft 499 kts 131°
2026-04-26 20:19 30.61074 67.20515 39312 ft 492 kts 131°
2026-04-26 20:20 30.56805 67.26761 39318 ft 496 kts 131°
2026-04-26 20:20 30.52510 67.33034 39341 ft 495 kts 131°
2026-04-26 20:21 30.48256 67.39239 39354 ft 494 kts 131°
2026-04-26 20:21 30.43983 67.45461 39328 ft 492 kts 131°
2026-04-26 20:22 30.39709 67.51675 39326 ft 493 kts 131°
2026-04-26 20:22 30.35441 67.57872 39288 ft 492 kts 131°
2026-04-26 20:23 30.31150 67.64091 39277 ft 493 kts 131°
2026-04-26 20:23 30.26890 67.70255 39184 ft 491 kts 131°
2026-04-26 20:24 30.22616 67.76430 39161 ft 492 kts 132°
2026-04-26 20:24 30.18363 67.82567 39121 ft 492 kts 132°
2026-04-26 20:25 30.14097 67.88712 39068 ft 490 kts 131°
2026-04-26 20:25 30.09823 67.94859 39031 ft 489 kts 131°
2026-04-26 20:26 30.05553 68.00990 39011 ft 492 kts 131°
2026-04-26 20:26 30.01295 68.07096 38979 ft 491 kts 132°
2026-04-26 20:27 29.97030 68.13202 38971 ft 490 kts 131°
2026-04-26 20:27 29.92750 68.19320 38960 ft 491 kts 131°
2026-04-26 20:28 29.88443 68.25466 38961 ft 491 kts 131°
2026-04-26 20:28 29.84177 68.31546 38946 ft 491 kts 131°
2026-04-26 20:29 29.79883 68.37656 38923 ft 492 kts 131°
2026-04-26 20:29 29.75579 68.43772 38916 ft 491 kts 131°
2026-04-26 20:30 29.71279 68.49873 38931 ft 491 kts 131°
2026-04-26 20:30 29.66965 68.55983 38921 ft 491 kts 131°
2026-04-26 20:31 29.62673 68.62054 38929 ft 492 kts 131°
2026-04-26 20:31 29.58361 68.68144 38946 ft 489 kts 132°
2026-04-26 20:32 29.54054 68.74219 38958 ft 491 kts 131°
2026-04-26 20:32 29.49779 68.80238 38975 ft 489 kts 132°
2026-04-26 20:33 29.45492 68.86266 38948 ft 490 kts 132°
2026-04-26 20:33 29.41165 68.92340 38943 ft 490 kts 131°
2026-04-26 20:34 29.36867 68.98365 38913 ft 490 kts 131°
2026-04-26 20:34 29.32568 69.04383 38905 ft 490 kts 131°
2026-04-26 20:35 29.28263 69.10401 38898 ft 488 kts 131°
2026-04-26 20:35 29.23961 69.16406 38910 ft 489 kts 131°
2026-04-26 20:36 29.19642 69.22424 38894 ft 488 kts 131°
2026-04-26 20:36 29.15330 69.28426 38866 ft 487 kts 131°
2026-04-26 20:37 29.11040 69.34387 38848 ft 488 kts 131°
2026-04-26 20:37 29.06714 69.40389 38830 ft 489 kts 131°
2026-04-26 20:38 29.02415 69.46346 38814 ft 488 kts 131°
2026-04-26 20:38 28.98104 69.52309 38799 ft 487 kts 131°
2026-04-26 20:39 28.93786 69.58276 38747 ft 486 kts 131°
2026-04-26 20:39 28.89467 69.64234 38720 ft 487 kts 131°
2026-04-26 20:40 28.85151 69.70180 38683 ft 487 kts 131°
2026-04-26 20:40 28.80839 69.76112 38664 ft 489 kts 131°
2026-04-26 20:41 28.76497 69.82077 38652 ft 487 kts 131°
2026-04-26 20:41 28.72179 69.88000 38629 ft 487 kts 131°
2026-04-26 20:42 28.67881 69.93887 38627 ft 487 kts 131°
2026-04-26 20:42 28.63563 69.99793 38640 ft 486 kts 131°
2026-04-26 20:43 28.59212 70.05736 38634 ft 487 kts 131°
2026-04-26 20:43 28.54883 70.11640 38634 ft 487 kts 131°
2026-04-26 20:44 28.50545 70.17549 38642 ft 488 kts 131°
2026-04-26 20:44 28.46192 70.23486 38630 ft 489 kts 129°
2026-04-26 20:45 28.42839 70.30149 38630 ft 491 kts 110°
2026-04-26 20:45 28.41401 70.37738 38632 ft 493 kts 92°
2026-04-26 20:46 28.41628 70.45463 38632 ft 491 kts 85°
2026-04-26 20:46 28.42008 70.53140 38630 ft 491 kts 85°
2026-04-26 20:47 28.42362 70.60951 38637 ft 498 kts 85°
2026-04-26 20:47 28.42699 70.68855 38638 ft 509 kts 86°
2026-04-26 20:48 28.43027 70.76891 38636 ft 511 kts 86°
2026-04-26 20:48 28.43348 70.84976 38625 ft 511 kts 86°
2026-04-26 20:49 28.43661 70.93055 38635 ft 512 kts 86°
2026-04-26 20:49 28.43966 71.01067 38632 ft 512 kts 86°
2026-04-26 20:50 28.44267 71.09116 38642 ft 512 kts 86°
2026-04-26 20:50 28.44563 71.17177 38639 ft 511 kts 86°
2026-04-26 20:51 28.44854 71.25246 38648 ft 512 kts 86°
2026-04-26 20:51 28.45141 71.33313 38653 ft 512 kts 86°
2026-04-26 20:52 28.45423 71.41397 38644 ft 512 kts 86°
2026-04-26 20:52 28.45698 71.49425 38646 ft 512 kts 86°
2026-04-26 20:53 28.45969 71.57452 38649 ft 510 kts 86°
2026-04-26 20:53 28.46235 71.65485 38656 ft 511 kts 86°
2026-04-26 20:54 28.46497 71.73531 38646 ft 510 kts 86°
2026-04-26 20:54 28.46754 71.81574 38649 ft 509 kts 86°
2026-04-26 20:55 28.47008 71.89642 38649 ft 512 kts 86°
2026-04-26 20:55 28.47254 71.97668 38646 ft 510 kts 86°
2026-04-26 20:56 28.47497 72.05690 38653 ft 510 kts 86°
2026-04-26 20:56 28.47734 72.13725 38654 ft 512 kts 86°
2026-04-26 20:57 28.47969 72.21877 38647 ft 523 kts 88°
2026-04-26 20:57 28.47242 72.30154 38651 ft 532 kts 98°
2026-04-26 20:58 28.46016 72.38403 38650 ft 531 kts 99°
2026-04-26 20:58 28.44769 72.46703 38653 ft 532 kts 99°
2026-04-26 20:59 28.43520 72.54968 38661 ft 531 kts 99°
2026-04-26 20:59 28.42264 72.63242 38666 ft 532 kts 99°
2026-04-26 21:00 28.41005 72.71491 38666 ft 531 kts 99°
2026-04-26 21:00 28.39739 72.79759 38669 ft 532 kts 99°
2026-04-26 21:01 28.38473 72.87990 38667 ft 532 kts 99°
2026-04-26 21:01 28.37196 72.96254 38679 ft 533 kts 99°
2026-04-26 21:02 28.35909 73.04550 38674 ft 532 kts 99°
2026-04-26 21:02 28.34621 73.12818 38678 ft 532 kts 99°
2026-04-26 21:03 28.33329 73.21079 38682 ft 533 kts 99°
2026-04-26 21:03 28.32033 73.29335 38683 ft 533 kts 99°
2026-04-26 21:04 28.30732 73.37585 38689 ft 533 kts 99°
2026-04-26 21:04 28.29422 73.45858 38692 ft 533 kts 99°
2026-04-26 21:05 28.28110 73.54108 38700 ft 531 kts 99°
2026-04-26 21:05 28.26825 73.62158 38699 ft 511 kts 99°
2026-04-26 21:06 28.25555 73.70087 38698 ft 513 kts 100°
2026-04-26 21:06 28.24278 73.78027 38701 ft 511 kts 100°
2026-04-26 21:07 28.23003 73.85920 38694 ft 510 kts 100°
2026-04-26 21:07 28.21727 73.93793 38690 ft 510 kts 100°
2026-04-26 21:08 28.20437 74.01724 38693 ft 511 kts 100°
2026-04-26 21:08 28.19179 74.09597 38689 ft 510 kts 97°
2026-04-26 21:09 28.19034 74.17606 38702 ft 510 kts 87°
2026-04-26 21:09 28.19257 74.25612 38706 ft 509 kts 87°
2026-04-26 21:10 28.19470 74.33605 38714 ft 507 kts 87°
2026-04-26 21:10 28.19672 74.41525 38715 ft 505 kts 87°
2026-04-26 21:11 28.19868 74.49472 38728 ft 506 kts 87°
2026-04-26 21:11 28.20059 74.57473 38729 ft 505 kts 87°
2026-04-26 21:12 28.20243 74.65385 38744 ft 506 kts 87°
2026-04-26 21:12 28.20422 74.73321 38702 ft 502 kts 87°
2026-04-26 21:12 28.20508 74.77238 38068 ft 498 kts 87°
2026-04-26 21:13 28.20595 74.81192 36848 ft 505 kts 88°
2026-04-26 21:13 28.20680 74.85132 35802 ft 508 kts 88°
2026-04-26 21:13 28.20764 74.89130 34830 ft 510 kts 88°
2026-04-26 21:13 28.20849 74.93166 33833 ft 511 kts 88°
2026-04-26 21:14 28.20931 74.97140 32876 ft 513 kts 88°
2026-04-26 21:14 28.21014 75.01189 31871 ft 515 kts 88°
2026-04-26 21:14 28.21095 75.05262 30821 ft 518 kts 88°
2026-04-26 21:14 28.21175 75.09321 29997 ft 516 kts 88°
2026-04-26 21:15 28.21253 75.13364 29465 ft 509 kts 88°
2026-04-26 21:15 28.21328 75.17298 28870 ft 503 kts 88°
2026-04-26 21:15 28.21402 75.21218 28237 ft 499 kts 88°
2026-04-26 21:15 28.21475 75.25136 27595 ft 494 kts 88°
2026-04-26 21:16 28.21547 75.29082 26923 ft 491 kts 88°
2026-04-26 21:16 28.21617 75.32943 26263 ft 487 kts 88°
2026-04-26 21:16 28.21684 75.36752 25606 ft 483 kts 88°
2026-04-26 21:16 28.21753 75.40676 24921 ft 479 kts 88°
2026-04-26 21:17 28.21818 75.44453 24257 ft 475 kts 88°
2026-04-26 21:17 28.21880 75.48161 23572 ft 472 kts 88°
2026-04-26 21:17 28.21943 75.51920 22887 ft 468 kts 88°
2026-04-26 21:17 28.22004 75.55650 22221 ft 463 kts 88°
2026-04-26 21:18 28.22062 75.59274 21569 ft 459 kts 87°
2026-04-26 21:18 28.22119 75.62899 20904 ft 455 kts 87°
2026-04-26 21:18 28.22176 75.66541 20210 ft 452 kts 88°
2026-04-26 21:18 28.22230 75.70123 19528 ft 448 kts 87°
2026-04-26 21:19 28.22283 75.73627 18864 ft 445 kts 87°
2026-04-26 21:19 28.22335 75.77151 18180 ft 441 kts 87°
2026-04-26 21:19 28.22386 75.80656 17495 ft 438 kts 87°
2026-04-26 21:19 28.22435 75.84126 16816 ft 435 kts 87°
2026-04-26 21:20 28.22482 75.87493 16159 ft 432 kts 86°
2026-04-26 21:20 28.22530 75.90909 15497 ft 429 kts 86°
2026-04-26 21:20 28.22574 75.94292 15036 ft 407 kts 86°
2026-04-26 21:20 28.22614 75.97436 15021 ft 388 kts 86°
2026-04-26 21:21 28.22652 76.00416 15003 ft 371 kts 86°
2026-04-26 21:21 28.22688 76.03252 15002 ft 356 kts 86°
2026-04-26 21:21 28.22944 76.05992 14986 ft 338 kts 70°
2026-04-26 21:21 28.23776 76.08503 14932 ft 335 kts 61°
2026-04-26 21:22 28.24764 76.10873 14815 ft 333 kts 59°
2026-04-26 21:22 28.25788 76.13223 14700 ft 331 kts 59°
2026-04-26 21:22 28.26812 76.15540 14595 ft 330 kts 59°
2026-04-26 21:23 28.28865 76.20174 14359 ft 330 kts 58°
2026-04-26 21:23 28.29897 76.22504 14262 ft 330 kts 58°
2026-04-26 21:23 28.30928 76.24834 14148 ft 329 kts 58°
2026-04-26 21:23 28.31945 76.27135 14041 ft 330 kts 58°
2026-04-26 21:24 28.32977 76.29470 13934 ft 330 kts 58°
2026-04-26 21:24 28.34008 76.31803 13823 ft 330 kts 58°
2026-04-26 21:24 28.35006 76.34066 13717 ft 329 kts 58°
2026-04-26 21:24 28.36029 76.36385 13608 ft 328 kts 58°
2026-04-26 21:25 28.37045 76.38689 13509 ft 328 kts 58°
2026-04-26 21:25 28.38075 76.41026 13406 ft 329 kts 58°
2026-04-26 21:25 28.39091 76.43333 13297 ft 327 kts 58°
2026-04-26 21:25 28.40117 76.45666 13214 ft 328 kts 58°
2026-04-26 21:26 28.41150 76.48014 13099 ft 328 kts 58°
2026-04-26 21:26 28.42185 76.50369 12978 ft 326 kts 58°
2026-04-26 21:26 28.43194 76.52665 12884 ft 327 kts 58°
2026-04-26 21:26 28.44214 76.54987 12776 ft 327 kts 58°
2026-04-26 21:27 28.45222 76.57285 12669 ft 326 kts 58°
2026-04-26 21:27 28.46247 76.59620 12562 ft 326 kts 58°
2026-04-26 21:27 28.47262 76.61935 12465 ft 325 kts 58°
2026-04-26 21:27 28.48277 76.64253 12002 ft 329 kts 58°
2026-04-26 21:28 28.49296 76.66576 11401 ft 337 kts 59°
2026-04-26 21:28 28.50353 76.68993 11046 ft 334 kts 59°
2026-04-26 21:28 28.51306 76.71375 10958 ft 332 kts 69°
2026-04-26 21:28 28.51567 76.74033 10965 ft 343 kts 92°
2026-04-26 21:29 28.51198 76.76714 10967 ft 345 kts 101°
2026-04-26 21:29 28.50661 76.79401 10977 ft 346 kts 102°
2026-04-26 21:29 28.50100 76.82046 10965 ft 336 kts 102°
2026-04-26 21:29 28.49559 76.84580 10966 ft 322 kts 102°
2026-04-26 21:30 28.49043 76.86998 10971 ft 310 kts 102°
2026-04-26 21:30 28.48537 76.89372 10972 ft 310 kts 102°
2026-04-26 21:30 28.48027 76.91763 10970 ft 310 kts 102°
2026-04-26 21:30 28.47525 76.94112 10968 ft 310 kts 102°
2026-04-26 21:31 28.47016 76.96496 10964 ft 310 kts 102°
2026-04-26 21:31 28.46503 76.98888 10704 ft 313 kts 102°
2026-04-26 21:31 28.45981 77.01320 9821 ft 326 kts 103°
2026-04-26 21:31 28.45441 77.03836 9076 ft 331 kts 103°
2026-04-26 21:32 28.44899 77.06352 8376 ft 332 kts 103°
2026-04-26 21:32 28.44351 77.08897 7717 ft 330 kts 103°
2026-04-26 21:32 28.43807 77.11427 7384 ft 327 kts 103°
2026-04-26 21:32 28.43273 77.13904 7032 ft 326 kts 102°
2026-04-26 21:33 28.42732 77.16415 6649 ft 324 kts 102°
2026-04-26 21:33 28.42204 77.18859 6273 ft 322 kts 102°
2026-04-26 21:33 28.41668 77.21343 5884 ft 320 kts 102°
2026-04-26 21:33 28.41147 77.23775 5467 ft 317 kts 102°
2026-04-26 21:34 28.40633 77.26135 5117 ft 304 kts 102°
2026-04-26 21:34 28.40127 77.28416 4986 ft 284 kts 102°
2026-04-26 21:34 28.39657 77.30521 4889 ft 277 kts 102°
2026-04-26 21:34 28.39178 77.32649 4628 ft 276 kts 102°
2026-04-26 21:35 28.38707 77.34731 4356 ft 276 kts 99°
2026-04-26 21:35 28.38687 77.36870 4108 ft 265 kts 72°
2026-04-26 21:35 28.39454 77.38669 4088 ft 245 kts 46°
2026-04-26 21:35 28.40694 77.39866 4071 ft 227 kts 24°
2026-04-26 21:36 28.42144 77.40415 3991 ft 214 kts
2026-04-26 21:36 28.43120 77.40430 3971 ft 205 kts 351°
2026-04-26 21:36 28.44838 77.39763 3957 ft 188 kts 327°
2026-04-26 21:36 28.45806 77.38820 3945 ft 179 kts 310°
2026-04-26 21:37 28.46475 77.37654 3959 ft 175 kts 302°
2026-04-26 21:37 28.47062 77.36451 3962 ft 172 kts 301°
2026-04-26 21:37 28.47653 77.35273 3938 ft 172 kts 309°
2026-04-26 21:37 28.48458 77.34277 3914 ft 172 kts 315°
2026-04-26 21:38 28.49185 77.33198 3862 ft 171 kts 300°
2026-04-26 21:38 28.49588 77.31934 3804 ft 172 kts 290°
2026-04-26 21:38 28.49871 77.30655 3744 ft 159 kts 287°
2026-04-26 21:38 28.50119 77.29459 3640 ft 154 kts 288°
2026-04-26 21:39 28.50367 77.28293 3490 ft 150 kts 288°
2026-04-26 21:39 28.50613 77.27146 3348 ft 150 kts 289°
2026-04-26 21:39 28.50861 77.26000 3210 ft 149 kts 289°
2026-04-26 21:39 28.51109 77.24854 3072 ft 149 kts 289°
2026-04-26 21:40 28.51358 77.23704 2937 ft 149 kts 289°
2026-04-26 21:40 28.51605 77.22566 2763 ft 144 kts 288°
2026-04-26 21:40 28.51838 77.21490 2610 ft 137 kts 288°
2026-04-26 21:40 28.52063 77.20456 2455 ft 133 kts 288°
2026-04-26 21:41 28.52285 77.19434 2298 ft 133 kts 288°
2026-04-26 21:41 28.52503 77.18425 2139 ft 131 kts 287°
2026-04-26 21:41 28.52718 77.17404 1978 ft 132 kts 287°
2026-04-26 21:41 28.52940 77.16392 1818 ft 132 kts 287°
2026-04-26 21:42 28.53162 77.15389 1650 ft 132 kts 287°
2026-04-26 21:42 28.53389 77.14359 1492 ft 133 kts 285°
2026-04-26 21:42 28.53609 77.13332 1325 ft 135 kts 284°
2026-04-26 21:42 28.53827 77.12296 1127 ft 133 kts 285°
2026-04-26 21:43 28.54055 77.11277 961 ft 133 kts 284°
2026-04-26 21:43 28.54276 77.10249 818 ft 134 kts 284°
2026-04-26 21:43 28.54485 77.09293 786 ft 106 kts 284°
2026-04-26 21:43 28.54622 77.08646 786 ft 62 kts 283°
2026-04-26 21:44 28.54702 77.08281 786 ft 41 kts 284°
2026-04-26 21:44 28.54771 77.08061 786 ft 27 kts 300°
2026-04-26 21:44 28.54869 77.07924 785 ft 21 kts 312°
2026-04-26 21:44 28.54927 77.07851 786 ft 10 kts 313°
2026-04-26 21:45 28.54998 77.07844 786 ft 11 kts 25°
2026-04-26 21:45 28.55082 77.07884 786 ft 12 kts 16°
2026-04-26 21:45 28.55162 77.07912 786 ft 10 kts 31°
2026-04-26 21:45 28.55219 77.07986 786 ft 13 kts 60°
2026-04-26 21:46 28.55262 77.08073 786 ft 13 kts 58°
2026-04-26 21:46 28.55306 77.08154 786 ft 9 kts 58°
2026-04-26 21:46 28.55336 77.08210 786 ft 7 kts 59°
2026-04-26 21:46 28.55328 77.08257 786 ft 7 kts 135°
2026-04-26 21:47 28.55301 77.08279 786 ft 3 kts 144°
2026-04-26 21:47 28.55292 77.08286 786 ft 0 kts 146°